map of MKZ home
Great Circle Mapper logo
MKZ - Airport
Location
City:  Batu Berendam, Melaka, Malaysia
Near (Alt.):Malacca
Name:Batu Berendam
ICAO / IATA:WMKM / MKZ

Details
Type:Airport (Aerodrome, Airfield)
Latitude:215'48"N (2.263361)
Longitude:10215'06"E (102.251553)
Datum:WGS 1984
Elevation:35 ft (11 m)
Variation:0.05E (WMM2015 magnetic declination)
0.01 annual change
Runways:1
Longest:4501 × 121 ft (1372 × 37 m), paved

Time
Time Zone:UTC+8
Local Time:

Weather
METAR:WMKM 291300Z 06004KT 020V110 9999 FEW028 SCT140 BKN260 27/24 Q1011
TAF:WMKM 281700Z 2818/2918 03005KT 9999 FEW017CB SCT140 BKN280
TEMPO 2908/2912 4000 TSRA FEW010 FEW015CB SCT018

Related Locations
Nearby:
Farthest:TSC: 12434 mi / 20010 km
Taisha, S, EC

Find:

   beyond  
but within

Other Information
Maps:
NOTAMs:
Links:
Sources:

  
flag of Malaysia
flag of Melaka
  

Sectional Chart

Flight Planning
at skyvector.com

Satellite Image

Google Maps Satellite view

 

Copyright © 2004-2015 Karl L. Swartz. All rights reserved.
The Great Circle Mapper name and logo are trademarks of the Great Circle Mapper.
All other trademarks mentioned herein belong to their respective owners.
Please see credits for attibutions and further copyright information.

  Follow gcmap on Facebook Follow gcmap on Twitter Follow gcmap on Google+

hCard Microformat

Geo Microformat